YB2NDX-15 Weather Reports


Display with metric or nautical units.
time (UTC)temp
F
wind
direction
speed
MPH
gust
MPH
rain 1hr
in
rain 24hr
in
rain mn
in
humidity
%
barometer
mb
20260504194539 80 0.0 0.0 0.00 0.00 0.00 1008.2
20260504193533 80 0.0 0.0 0.00 0.00 0.00 1008.1
20260504192526 80 0.0 0.0 0.00 0.00 0.00 1008.1
20260504190513 80 0.0 0.0 0.00 0.00 0.00 1008.1
20260504185506 80 0.0 0.0 0.00 0.00 0.00 1008.4
20260504184500 80 0.0 0.0 0.00 0.00 0.00 1008.5
20260504183454 80 0.0 0.0 0.00 0.00 0.00 1008.5
20260504181441 81 0.0 0.0 0.00 0.00 0.00 1008.8
20260504180434 80 0.0 0.0 0.00 0.00 0.00 1008.8
20260504175428 81 0.0 0.0 0.00 0.00 0.00 1008.8
20260504173416 81 0.0 0.0 0.00 0.00 0.00 1009.3
20260504172409 81 0.0 0.0 0.00 0.00 0.00 1009.4
20260504171403 81 0.0 0.0 0.00 0.00 0.00 1009.5
20260504170357 81 0.0 0.0 0.00 0.00 0.00 1009.9
20260504150236 82 0.0 0.0 0.00 0.00 0.00 1010.5
20260504141203 83 0.0 0.0 0.00 0.00 0.00 1010.6
20260504140156 82 0.0 0.0 0.00 0.00 0.00 1010.6
20260504130116 83 0.0 0.0 0.00 0.00 0.00 1010.2
20260504080803 90 0.0 0.0 0.00 0.00 0.00 1006.8
20260504050603 93 0.0 0.0 0.00 0.00 0.00 1008.7
20260504045557 93 0.0 0.0 0.00 0.00 0.00 1008.9
20260504044550 93 0.0 0.0 0.00 0.00 0.00 1009.0
20260504042534 93 0.0 0.0 0.00 0.00 0.00 1009.3
20260504041528 93 0.0 0.0 0.00 0.00 0.00 1009.3
20260504040522 93 0.0 0.0 0.00 0.00 0.00 1009.4
20260504034508 92 0.0 0.0 0.00 0.00 0.00 1009.8
20260504033502 92 0.0 0.0 0.00 0.00 0.00 1009.8
20260504032456 92 0.0 0.0 0.00 0.00 0.00 1009.8
20260504031449 92 0.0 0.0 0.00 0.00 0.00 1009.8
20260504030443 91 0.0 0.0 0.00 0.00 0.00 1009.9
20260504025437 91 0.0 0.0 0.00 0.00 0.00 1010.1
20260504024431 90 0.0 0.0 0.00 0.00 0.00 1010.2
20260504023424 90 0.0 0.0 0.00 0.00 0.00 1010.2
20260504022418 89 0.0 0.0 0.00 0.00 0.00 1010.2
20260504021412 89 0.0 0.0 0.00 0.00 0.00 1010.2
20260504020410 88 0.0 0.0 0.00 0.00 0.00 1010.4
20260504014352 87 0.0 0.0 0.00 0.00 0.00 1010.3
20260504013346 87 0.0 0.0 0.00 0.00 0.00 1010.3
20260504012339 85 0.0 0.0 0.00 0.00 0.00 1010.1
20260504010325 84 0.0 0.0 0.00 0.00 0.00 1010.1
20260504005319 83 0.0 0.0 0.00 0.00 0.00 1010.0
20260504004312 82 0.0 0.0 0.00 0.00 0.00 1010.1
20260504003305 81 0.0 0.0 0.00 0.00 0.00 1010.1
20260504002259 81 0.0 0.0 0.00 0.00 0.00 1009.9
20260504001252 80 0.0 0.0 0.00 0.00 0.00 1009.7
20260504000246 80 0.0 0.0 0.00 0.00 0.00 1009.7
20260503235239 80 0.0 0.0 0.00 0.00 0.00 1009.5
20260503234233 80 0.0 0.0 0.00 0.00 0.00 1009.4
20260503233226 80 0.0 0.0 0.00 0.00 0.00 1009.5
20260503232220 79 0.0 0.0 0.00 0.00 0.00 1009.4
20260503231214 79 0.0 0.0 0.00 0.00 0.00 1009.3
20260503230208 79 0.0 0.0 0.00 0.00 0.00 1009.2
20260503225202 79 0.0 0.0 0.00 0.00 0.00 1009.1
20260503224156 79 0.0 0.0 0.00 0.00 0.00 1009.1
20260503223149 79 0.0 0.0 0.00 0.00 0.00 1008.8
20260503222142 79 0.0 0.0 0.00 0.00 0.00 1008.8
20260503221136 79 0.0 0.0 0.00 0.00 0.00 1008.6
20260503220129 79 0.0 0.0 0.00 0.00 0.00 1008.6
20260503215123 79 0.0 0.0 0.00 0.00 0.00 1008.5
20260503214117 79 0.0 0.0 0.00 0.00 0.00 1008.6
20260503213111 79 0.0 0.0 0.00 0.00 0.00 1008.6
20260503212105 79 0.0 0.0 0.00 0.00 0.00 1008.5
20260503211058 79 0.0 0.0 0.00 0.00 0.00 1008.6
20260503210052 79 0.0 0.0 0.00 0.00 0.00 1008.6
20260503205046 79 0.0 0.0 0.00 0.00 0.00 1008.6
20260503204039 80 0.0 0.0 0.00 0.00 0.00 1008.6
20260503203033 80 0.0 0.0 0.00 0.00 0.00 1008.6
20260503202026 80 0.0 0.0 0.00 0.00 0.00 1008.4
20260503201020 80 0.0 0.0 0.00 0.00 0.00 1008.5
20260503200013 80 0.0 0.0 0.00 0.00 0.00 1008.4
20260503195006 80 0.0 0.0 0.00 0.00 0.00 1008.4